Find Starlink 31561

NORAD ID: 59352 Int'l Des: 2024-060 Owner: SPXS Country: US Constellation: starlink operational
LEOCIRCULAR

Live Position

Loading 3D Globe...

About Starlink 31561

Description loading...

Upcoming Passes

Passes for default location (London). Set your location on the main map for personalized predictions.

Altitude History

Loading altitude history...

Two-Line Element Set

1 59352U 24060E 26126.53006029 -.00001493 00000-0 -44746-4 0 9996
2 59352 43.0021 292.7862 0000984 246.1628 113.9120 15.27567277118918
Epoch: May 6, 2026 • Age: 16 hours

Current Status

Altitude 485.1 km
Velocity 7.63 km/s
Sub-Earth Point 35.57°N, 120.05°E
Launch Date Mar 31, 2024
Age 2 years
Type internet

Technical Details

Classification Payload
Mass 730.00 kg
Dry Mass 700.00 kg
Total Mass 730.00 kg
Length 0.30 m
Diameter 4.10 m
Span 29.00 m
Shape Box + pan
Manufacturer SPXS
Bus Type Starlink V2M
Phase Status In Orbit
Owner/State SPXS/US

Most Searched